Time,TemperatureF,DewpointF,PressureIn,WindDirection,WindDirectionDegrees,WindSpeedMPH,WindSpeedGustMPH,Humidity,HourlyPrecipIn,Conditions,Clouds,dailyrainin,SoftwareType,DateUTC
2012-10-31 00:00:00,55.4,55.1,29.73,NE,45,0.0,0.0,99,0.00,,,0.02,WUHU21623XXSP,2012-10-31 07:00:00,
2012-10-31 00:05:00,55.4,55.1,29.73,ESE,112,0.0,0.0,99,0.00,,,0.00,WUHU21623XXSP,2012-10-31 07:05:00,
2012-10-31 00:10:00,55.2,54.9,29.73,ESE,112,0.0,0.0,99,0.00,,,0.00,WUHU21623XXSP,2012-10-31 07:10:00,
2012-10-31 00:15:00,55.2,54.9,29.73,ESE,112,0.0,0.0,99,0.00,,,0.00,WUHU21623XXSP,2012-10-31 07:15:00,
2012-10-31 00:20:00,55.2,54.9,29.73,ESE,112,0.0,0.0,99,0.00,,,0.00,WUHU21623XXSP,2012-10-31 07:20:00,
2012-10-31 00:25:00,55.2,54.9,29.73,ENE,67,0.0,0.0,99,0.00,,,0.00,WUHU21623XXSP,2012-10-31 07:25:00,
2012-10-31 00:30:00,55.2,54.9,29.73,ENE,67,0.0,0.0,99,0.00,,,0.00,WUHU21623XXSP,2012-10-31 07:30:00,
2012-10-31 00:35:00,55.2,54.9,29.73,ENE,67,0.0,0.0,99,0.00,,,0.00,WUHU21623XXSP,2012-10-31 07:35:00,
2012-10-31 00:40:00,55.2,54.9,29.73,East,90,0.0,0.0,99,0.00,,,0.00,WUHU21623XXSP,2012-10-31 07:40:00,
2012-10-31 00:45:00,55.2,54.9,29.73,ESE,112,0.0,0.0,99,0.00,,,0.00,WUHU21623XXSP,2012-10-31 07:45:00,
2012-10-31 00:50:00,55.2,54.9,29.72,ESE,112,0.0,0.0,99,0.00,,,0.00,WUHU21623XXSP,2012-10-31 07:50:00,
2012-10-31 00:55:00,55.2,54.9,29.72,ESE,112,0.0,0.0,99,0.00,,,0.00,WUHU21623XXSP,2012-10-31 07:55:00,
2012-10-31 01:00:00,55.2,54.9,29.73,ESE,112,0.0,0.0,99,0.00,,,0.00,WUHU21623XXSP,2012-10-31 08:00:00,
2012-10-31 01:05:00,55.2,54.9,29.72,ESE,112,0.0,0.0,99,0.00,,,0.00,WUHU21623XXSP,2012-10-31 08:05:00,
2012-10-31 01:10:00,55.2,54.9,29.72,ESE,112,0.0,0.0,99,0.00,,,0.00,WUHU21623XXSP,2012-10-31 08:10:00,
2012-10-31 01:15:00,55.2,54.9,29.72,ESE,112,0.0,0.0,99,0.00,,,0.00,WUHU21623XXSP,2012-10-31 08:15:00,
2012-10-31 01:20:00,55.2,54.9,29.72,ESE,112,0.0,0.0,99,0.00,,,0.00,WUHU21623XXSP,2012-10-31 08:20:00,
2012-10-31 01:25:00,55.2,54.9,29.72,ESE,112,0.0,0.0,99,0.00,,,0.00,WUHU21623XXSP,2012-10-31 08:25:00,
2012-10-31 01:30:00,55.2,54.9,29.72,ESE,112,0.0,0.0,99,0.00,,,0.00,WUHU21623XXSP,2012-10-31 08:30:00,
2012-10-31 01:35:00,55.2,54.9,29.71,ESE,112,0.0,0.0,99,0.00,,,0.00,WUHU21623XXSP,2012-10-31 08:35:00,
2012-10-31 01:40:00,55.2,54.9,29.71,ESE,112,0.0,0.0,99,0.00,,,0.00,WUHU21623XXSP,2012-10-31 08:40:00,
2012-10-31 01:45:00,55.2,54.9,29.71,ESE,112,0.0,0.0,99,0.00,,,0.00,WUHU21623XXSP,2012-10-31 08:45:00,
2012-10-31 01:50:00,55.2,54.9,29.71,ESE,112,0.0,0.0,99,0.00,,,0.00,WUHU21623XXSP,2012-10-31 08:50:00,
2012-10-31 01:55:00,55.2,54.9,29.71,ESE,112,0.0,0.0,99,0.00,,,0.00,WUHU21623XXSP,2012-10-31 08:55:00,
2012-10-31 02:00:00,55.2,54.9,29.71,ESE,112,0.0,0.0,99,0.00,,,0.00,WUHU21623XXSP,2012-10-31 09:00:00,
2012-10-31 02:05:00,55.2,54.9,29.71,ESE,112,0.0,0.0,99,0.00,,,0.00,WUHU21623XXSP,2012-10-31 09:05:00,
2012-10-31 02:10:00,55.2,54.9,29.71,ESE,112,0.0,0.0,99,0.00,,,0.00,WUHU21623XXSP,2012-10-31 09:10:00,
2012-10-31 02:15:00,55.0,54.8,29.71,ESE,112,0.0,0.0,99,0.00,,,0.00,WUHU21623XXSP,2012-10-31 09:15:00,
2012-10-31 02:20:00,55.0,54.8,29.71,ESE,112,0.0,0.0,99,0.00,,,0.00,WUHU21623XXSP,2012-10-31 09:20:00,
2012-10-31 02:25:00,55.0,54.8,29.71,ESE,112,0.0,0.0,99,0.00,,,0.00,WUHU21623XXSP,2012-10-31 09:25:00,
2012-10-31 02:30:00,55.0,54.8,29.71,ESE,112,0.0,0.0,99,0.00,,,0.00,WUHU21623XXSP,2012-10-31 09:30:00,
2012-10-31 02:35:00,55.0,54.8,29.71,ESE,112,0.0,0.0,99,0.00,,,0.00,WUHU21623XXSP,2012-10-31 09:35:00,
2012-10-31 02:40:00,55.0,54.8,29.72,ESE,112,0.0,0.0,99,0.00,,,0.00,WUHU21623XXSP,2012-10-31 09:40:00,
2012-10-31 02:45:00,55.0,54.8,29.72,ESE,112,0.0,0.0,99,0.00,,,0.00,WUHU21623XXSP,2012-10-31 09:45:00,
2012-10-31 02:50:00,55.0,54.8,29.71,South,180,0.0,0.0,99,0.00,,,0.00,WUHU21623XXSP,2012-10-31 09:50:00,
2012-10-31 02:55:00,55.0,54.8,29.71,SE,135,0.0,0.0,99,0.00,,,0.00,WUHU21623XXSP,2012-10-31 09:55:00,
2012-10-31 03:00:00,55.0,54.8,29.71,SE,135,0.0,0.0,99,0.00,,,0.00,WUHU21623XXSP,2012-10-31 10:00:00,
2012-10-31 03:05:00,55.0,54.8,29.71,SE,135,0.0,0.0,99,0.00,,,0.00,WUHU21623XXSP,2012-10-31 10:05:00,
2012-10-31 03:10:00,55.0,54.8,29.71,SE,135,0.0,0.0,99,0.00,,,0.00,WUHU21623XXSP,2012-10-31 10:10:00,
2012-10-31 03:15:00,55.0,54.8,29.71,SE,135,0.0,0.0,99,0.00,,,0.00,WUHU21623XXSP,2012-10-31 10:15:00,
2012-10-31 03:20:00,55.0,54.8,29.71,SSE,157,0.0,0.0,99,0.00,,,0.00,WUHU21623XXSP,2012-10-31 10:20:00,
2012-10-31 03:25:00,55.0,54.8,29.70,SSE,157,0.0,0.0,99,0.00,,,0.00,WUHU21623XXSP,2012-10-31 10:25:00,
2012-10-31 03:30:00,54.9,54.6,29.70,SE,135,0.0,0.0,99,0.00,,,0.00,WUHU21623XXSP,2012-10-31 10:30:00,
2012-10-31 03:35:00,54.9,54.6,29.70,SE,135,0.0,0.0,99,0.00,,,0.00,WUHU21623XXSP,2012-10-31 10:35:00,
2012-10-31 03:40:00,54.9,54.6,29.69,SE,135,0.0,0.0,99,0.00,,,0.00,WUHU21623XXSP,2012-10-31 10:40:00,
2012-10-31 03:45:00,54.7,54.4,29.69,SSW,202,0.0,0.0,99,0.00,,,0.00,WUHU21623XXSP,2012-10-31 10:45:00,
2012-10-31 03:50:00,54.7,54.4,29.69,NNE,22,0.0,0.0,99,0.00,,,0.00,WUHU21623XXSP,2012-10-31 10:50:00,
2012-10-31 03:55:00,54.7,54.4,29.69,SE,135,0.0,0.0,99,0.00,,,0.00,WUHU21623XXSP,2012-10-31 10:55:00,
2012-10-31 04:00:00,54.7,54.4,29.68,SE,135,0.0,0.0,99,0.00,,,0.00,WUHU21623XXSP,2012-10-31 11:00:00,
2012-10-31 04:05:00,54.7,54.4,29.68,ESE,112,0.0,0.0,99,0.00,,,0.00,WUHU21623XXSP,2012-10-31 11:05:00,
2012-10-31 04:10:00,54.7,54.4,29.68,ESE,112,0.0,0.0,99,0.00,,,0.00,WUHU21623XXSP,2012-10-31 11:10:00,
2012-10-31 04:15:00,54.7,54.4,29.68,ESE,112,0.0,0.0,99,0.00,,,0.00,WUHU21623XXSP,2012-10-31 11:15:00,
2012-10-31 04:20:00,54.7,54.4,29.68,ESE,112,0.0,0.0,99,0.00,,,0.00,WUHU21623XXSP,2012-10-31 11:20:00,
2012-10-31 04:25:00,54.7,54.4,29.68,ESE,112,0.0,0.0,99,0.00,,,0.00,WUHU21623XXSP,2012-10-31 11:25:00,
2012-10-31 04:30:00,54.7,54.4,29.68,ESE,112,0.0,0.0,99,0.00,,,0.00,WUHU21623XXSP,2012-10-31 11:30:00,
2012-10-31 04:35:00,54.7,54.4,29.68,ESE,112,0.0,0.0,99,0.00,,,0.00,WUHU21623XXSP,2012-10-31 11:35:00,
2012-10-31 04:40:00,54.7,54.4,29.68,ESE,112,0.0,0.0,99,0.00,,,0.00,WUHU21623XXSP,2012-10-31 11:40:00,
2012-10-31 04:45:00,54.5,53.9,29.68,ESE,112,0.0,0.0,98,0.00,,,0.00,WUHU21623XXSP,2012-10-31 11:45:00,
2012-10-31 04:50:00,54.5,53.9,29.68,ESE,112,0.0,0.0,98,0.00,,,0.00,WUHU21623XXSP,2012-10-31 11:50:00,
2012-10-31 04:55:00,54.5,53.9,29.68,ESE,112,0.0,0.0,98,0.00,,,0.00,WUHU21623XXSP,2012-10-31 11:55:00,
2012-10-31 05:00:00,54.5,54.2,29.67,ESE,112,0.0,0.0,99,0.00,,,0.00,WUHU21623XXSP,2012-10-31 12:00:00,
2012-10-31 05:05:00,54.5,53.9,29.68,ESE,112,0.0,0.0,98,0.00,,,0.00,WUHU21623XXSP,2012-10-31 12:05:00,
2012-10-31 05:10:00,54.5,53.9,29.67,ESE,112,0.0,0.0,98,0.00,,,0.00,WUHU21623XXSP,2012-10-31 12:10:00,
2012-10-31 05:15:00,54.5,53.9,29.67,ESE,112,0.0,0.0,98,0.00,,,0.00,WUHU21623XXSP,2012-10-31 12:15:00,
2012-10-31 05:20:00,54.3,54.0,29.67,NE,45,0.0,0.0,99,0.00,,,0.00,WUHU21623XXSP,2012-10-31 12:20:00,
2012-10-31 05:25:00,54.3,54.0,29.67,NE,45,0.0,0.0,99,0.00,,,0.00,WUHU21623XXSP,2012-10-31 12:25:00,
2012-10-31 05:30:00,54.3,54.0,29.67,NE,45,0.0,0.0,99,0.00,,,0.00,WUHU21623XXSP,2012-10-31 12:30:00,
2012-10-31 05:35:00,54.3,54.0,29.67,NE,45,0.0,0.0,99,0.00,,,0.00,WUHU21623XXSP,2012-10-31 12:35:00,
2012-10-31 05:40:00,54.3,53.7,29.66,NE,45,0.0,0.0,98,0.00,,,0.00,WUHU21623XXSP,2012-10-31 12:40:00,
2012-10-31 05:45:00,54.3,53.7,29.67,NE,45,0.0,0.0,98,0.00,,,0.00,WUHU21623XXSP,2012-10-31 12:45:00,
2012-10-31 05:50:00,54.3,53.7,29.66,NE,45,0.0,0.0,98,0.00,,,0.00,WUHU21623XXSP,2012-10-31 12:50:00,
2012-10-31 05:55:00,54.3,54.0,29.66,NE,45,0.0,0.0,99,0.00,,,0.00,WUHU21623XXSP,2012-10-31 12:55:00,
2012-10-31 06:00:00,54.3,53.7,29.66,NE,45,0.0,0.0,98,0.00,,,0.00,WUHU21623XXSP,2012-10-31 13:00:00,
2012-10-31 06:05:00,54.3,54.0,29.66,NE,45,0.0,0.0,99,0.00,,,0.00,WUHU21623XXSP,2012-10-31 13:05:00,
2012-10-31 06:10:00,54.3,54.0,29.66,NE,45,0.0,0.0,99,0.00,,,0.00,WUHU21623XXSP,2012-10-31 13:10:00,
2012-10-31 06:15:00,54.3,53.7,29.66,NE,45,0.0,0.0,98,0.00,,,0.00,WUHU21623XXSP,2012-10-31 13:15:00,
2012-10-31 06:20:00,54.3,53.7,29.66,NE,45,0.0,0.0,98,0.00,,,0.00,WUHU21623XXSP,2012-10-31 13:20:00,
2012-10-31 06:25:00,54.1,53.6,29.65,NE,45,0.0,0.0,98,0.00,,,0.00,WUHU21623XXSP,2012-10-31 13:25:00,
2012-10-31 06:30:00,54.1,53.6,29.66,NE,45,0.0,0.0,98,0.00,,,0.00,WUHU21623XXSP,2012-10-31 13:30:00,
2012-10-31 06:35:00,54.1,53.9,29.65,NE,45,0.0,0.0,99,0.00,,,0.00,WUHU21623XXSP,2012-10-31 13:35:00,
2012-10-31 06:40:00,54.1,53.6,29.65,NE,45,0.0,0.0,98,0.00,,,0.00,WUHU21623XXSP,2012-10-31 13:40:00,
2012-10-31 06:45:00,54.1,53.9,29.65,NE,45,0.0,0.0,99,0.00,,,0.00,WUHU21623XXSP,2012-10-31 13:45:00,
2012-10-31 06:50:00,54.1,53.9,29.65,NE,45,0.0,0.0,99,0.00,,,0.00,WUHU21623XXSP,2012-10-31 13:50:00,
2012-10-31 06:55:00,54.1,53.6,29.65,NE,45,0.0,0.0,98,0.00,,,0.00,WUHU21623XXSP,2012-10-31 13:55:00,
2012-10-31 07:00:00,54.1,53.9,29.65,NE,45,0.0,0.0,99,0.00,,,0.00,WUHU21623XXSP,2012-10-31 14:00:00,
2012-10-31 07:05:00,54.0,53.4,29.65,NE,45,0.0,0.0,98,0.00,,,0.00,WUHU21623XXSP,2012-10-31 14:05:00,
2012-10-31 07:10:00,54.0,53.4,29.65,NE,45,0.0,0.0,98,0.00,,,0.00,WUHU21623XXSP,2012-10-31 14:10:00,
2012-10-31 07:15:00,54.0,53.7,29.64,NE,45,0.0,0.0,99,0.00,,,0.00,WUHU21623XXSP,2012-10-31 14:15:00,
2012-10-31 07:20:00,53.8,53.5,29.64,NE,45,0.0,0.0,99,0.00,,,0.00,WUHU21623XXSP,2012-10-31 14:20:00,
2012-10-31 07:25:00,53.8,53.5,29.63,NE,45,0.0,0.0,99,0.00,,,0.00,WUHU21623XXSP,2012-10-31 14:25:00,
2012-10-31 07:30:00,53.8,53.5,29.63,NE,45,0.0,0.0,99,0.00,,,0.00,WUHU21623XXSP,2012-10-31 14:30:00,
2012-10-31 07:35:00,53.8,53.5,29.63,NE,45,0.0,0.0,99,0.00,,,0.00,WUHU21623XXSP,2012-10-31 14:35:00,
2012-10-31 07:40:00,53.8,53.5,29.63,NNE,22,0.0,0.0,99,0.00,,,0.00,WUHU21623XXSP,2012-10-31 14:40:00,
2012-10-31 07:45:00,53.8,53.5,29.63,NNE,22,0.0,0.0,99,0.00,,,0.00,WUHU21623XXSP,2012-10-31 14:45:00,
2012-10-31 07:50:00,53.8,53.5,29.63,NNE,22,0.0,0.0,99,0.00,,,0.00,WUHU21623XXSP,2012-10-31 14:50:00,
2012-10-31 07:55:00,53.8,53.5,29.62,NNE,22,0.0,0.0,99,0.00,,,0.00,WUHU21623XXSP,2012-10-31 14:55:00,
2012-10-31 08:00:00,53.8,53.5,29.62,NNE,22,0.0,0.0,99,0.00,,,0.00,WUHU21623XXSP,2012-10-31 15:00:00,
2012-10-31 08:05:00,53.8,53.5,29.62,NNE,22,0.0,0.0,99,0.00,,,0.00,WUHU21623XXSP,2012-10-31 15:05:00,
2012-10-31 08:10:00,53.8,53.5,29.62,NNE,22,0.0,0.0,99,0.00,,,0.00,WUHU21623XXSP,2012-10-31 15:10:00,
2012-10-31 08:15:00,53.8,53.5,29.62,NNE,22,0.0,0.0,99,0.00,,,0.00,WUHU21623XXSP,2012-10-31 15:15:00,
2012-10-31 08:20:00,53.6,53.3,29.62,NNE,22,0.0,0.0,99,0.00,,,0.00,WUHU21623XXSP,2012-10-31 15:20:00,
2012-10-31 08:25:00,53.6,53.3,29.62,NNE,22,0.0,0.0,99,0.00,,,0.00,WUHU21623XXSP,2012-10-31 15:25:00,
2012-10-31 08:30:00,53.8,53.5,29.62,NNE,22,0.0,0.0,99,0.00,,,0.00,WUHU21623XXSP,2012-10-31 15:30:00,
2012-10-31 08:35:00,53.8,53.5,29.62,NNE,22,0.0,0.0,99,0.00,,,0.00,WUHU21623XXSP,2012-10-31 15:35:00,
2012-10-31 08:40:00,53.8,53.5,29.62,NNE,22,0.0,0.0,99,0.00,,,0.00,WUHU21623XXSP,2012-10-31 15:40:00,
2012-10-31 08:45:00,53.6,53.5,29.62,NNE,22,0.0,0.0,99,0.00,,,0.00,WUHU21623XXSP,2012-10-31 15:45:00,
2012-10-31 08:50:00,53.8,53.5,29.62,NNE,22,0.0,0.0,99,0.00,,,0.00,WUHU21623XXSP,2012-10-31 15:50:00,
2012-10-31 08:55:00,53.6,53.1,29.61,NNE,22,0.0,0.0,99,0.00,,,0.00,WUHU21623XXSP,2012-10-31 15:55:00,
2012-10-31 09:00:00,53.8,53.5,29.61,NNE,22,0.0,0.0,99,0.00,,,0.00,WUHU21623XXSP,2012-10-31 16:00:00,
2012-10-31 09:05:00,53.6,53.3,29.62,NNE,22,0.0,0.0,99,0.00,,,0.00,WUHU21623XXSP,2012-10-31 16:05:00,
2012-10-31 09:10:00,53.8,53.5,29.61,NNE,22,0.0,0.0,99,0.00,,,0.00,WUHU21623XXSP,2012-10-31 16:10:00,
2012-10-31 09:15:00,53.4,53.1,29.62,NNE,22,0.0,0.0,99,0.00,,,0.00,WUHU21623XXSP,2012-10-31 16:15:00,
2012-10-31 09:20:00,53.8,53.1,29.62,NNE,22,0.0,0.0,99,0.00,,,0.00,WUHU21623XXSP,2012-10-31 16:20:00,
2012-10-31 09:25:00,53.6,53.3,29.61,NNE,22,0.0,0.0,99,0.00,,,0.00,WUHU21623XXSP,2012-10-31 16:25:00,
2012-10-31 09:30:00,53.4,53.1,29.61,NE,45,0.0,0.0,99,0.00,,,0.00,WUHU21623XXSP,2012-10-31 16:30:00,
2012-10-31 09:35:00,53.4,53.1,29.61,South,180,0.0,0.0,99,0.00,,,0.00,WUHU21623XXSP,2012-10-31 16:35:00,
2012-10-31 09:40:00,53.8,53.5,29.62,WSW,247,0.0,0.0,99,0.00,,,0.00,WUHU21623XXSP,2012-10-31 16:40:00,
2012-10-31 09:45:00,53.6,53.3,29.63,WSW,247,0.0,0.0,99,0.00,,,0.00,WUHU21623XXSP,2012-10-31 16:45:00,
2012-10-31 09:50:00,53.8,53.5,29.63,WSW,247,0.0,0.0,99,0.00,,,0.00,WUHU21623XXSP,2012-10-31 16:50:00,
2012-10-31 09:55:00,53.8,53.5,29.63,WSW,247,0.0,0.0,99,0.00,,,0.00,WUHU21623XXSP,2012-10-31 16:55:00,
2012-10-31 10:00:00,53.8,53.5,29.63,WSW,247,0.0,0.0,99,0.00,,,0.00,WUHU21623XXSP,2012-10-31 17:00:00,
2012-10-31 10:05:00,53.8,53.5,29.63,WSW,247,0.0,0.0,99,0.00,,,0.00,WUHU21623XXSP,2012-10-31 17:05:00,
2012-10-31 10:10:00,53.8,53.5,29.63,WSW,247,0.0,0.0,99,0.00,,,0.00,WUHU21623XXSP,2012-10-31 17:10:00,
2012-10-31 10:15:00,53.8,53.5,29.63,WSW,247,0.0,0.0,99,0.00,,,0.00,WUHU21623XXSP,2012-10-31 17:15:00,
2012-10-31 10:20:00,54.0,53.7,29.63,WSW,247,0.0,0.0,99,0.00,,,0.00,WUHU21623XXSP,2012-10-31 17:20:00,
2012-10-31 10:25:00,54.0,53.7,29.62,WSW,247,0.0,0.0,99,0.00,,,0.00,WUHU21623XXSP,2012-10-31 17:25:00,
2012-10-31 10:30:00,54.0,53.7,29.63,WSW,247,0.0,0.0,99,0.00,,,0.00,WUHU21623XXSP,2012-10-31 17:30:00,
2012-10-31 10:35:00,54.1,53.9,29.64,WSW,247,0.0,0.0,99,0.00,,,0.00,WUHU21623XXSP,2012-10-31 17:35:00,
2012-10-31 10:40:00,54.1,53.9,29.63,North,0,0.0,0.0,99,0.00,,,0.00,WUHU21623XXSP,2012-10-31 17:40:00,
2012-10-31 10:45:00,54.0,53.7,29.63,North,0,0.0,0.0,99,0.00,,,0.00,WUHU21623XXSP,2012-10-31 17:45:00,
2012-10-31 10:50:00,54.1,53.9,29.63,North,0,0.0,0.0,99,0.00,,,0.00,WUHU21623XXSP,2012-10-31 17:50:00,
2012-10-31 10:55:00,54.1,53.9,29.62,North,0,0.0,0.0,99,0.00,,,0.00,WUHU21623XXSP,2012-10-31 17:55:00,
2012-10-31 11:00:00,54.3,54.0,29.63,North,0,0.0,0.0,99,0.00,,,0.00,WUHU21623XXSP,2012-10-31 18:00:00,
2012-10-31 11:05:00,54.3,54.0,29.62,North,0,0.0,0.0,99,0.00,,,0.00,WUHU21623XXSP,2012-10-31 18:05:00,
2012-10-31 11:10:00,54.3,54.0,29.62,NE,45,0.0,0.0,99,0.00,,,0.00,WUHU21623XXSP,2012-10-31 18:10:00,
2012-10-31 11:15:00,54.3,54.0,29.62,ENE,67,0.0,0.0,99,0.00,,,0.00,WUHU21623XXSP,2012-10-31 18:15:00,
2012-10-31 11:20:00,54.5,54.2,29.61,ENE,67,0.0,0.0,99,0.00,,,0.00,WUHU21623XXSP,2012-10-31 18:20:00,
2012-10-31 11:25:00,54.7,54.4,29.61,ENE,67,0.0,0.0,99,0.00,,,0.00,WUHU21623XXSP,2012-10-31 18:25:00,
2012-10-31 11:30:00,54.7,54.4,29.61,SE,135,0.0,0.0,99,0.00,,,0.00,WUHU21623XXSP,2012-10-31 18:30:00,
2012-10-31 11:35:00,54.7,54.4,29.62,SE,135,0.0,0.0,99,0.00,,,0.00,WUHU21623XXSP,2012-10-31 18:35:00,
2012-10-31 11:40:00,55.0,54.8,29.62,SE,135,0.0,0.0,99,0.00,,,0.00,WUHU21623XXSP,2012-10-31 18:40:00,
2012-10-31 11:45:00,55.2,54.9,29.62,SE,135,0.0,0.0,99,0.00,,,0.00,WUHU21623XXSP,2012-10-31 18:45:00,
2012-10-31 11:50:00,55.2,54.9,29.61,SE,135,0.0,0.0,99,0.00,,,0.00,WUHU21623XXSP,2012-10-31 18:50:00,
2012-10-31 11:55:00,55.2,54.9,29.61,SE,135,0.0,0.0,99,0.00,,,0.00,WUHU21623XXSP,2012-10-31 18:55:00,
2012-10-31 12:00:00,55.4,55.1,29.61,NE,45,0.0,0.0,99,0.00,,,0.00,WUHU21623XXSP,2012-10-31 19:00:00,
2012-10-31 12:05:00,55.6,55.3,29.61,NE,45,0.0,0.0,99,0.00,,,0.00,WUHU21623XXSP,2012-10-31 19:05:00,
2012-10-31 12:10:00,55.6,55.3,29.61,NNE,22,0.0,0.0,99,0.00,,,0.00,WUHU21623XXSP,2012-10-31 19:10:00,
2012-10-31 12:15:00,55.8,55.5,29.61,NNE,22,0.0,0.0,99,0.00,,,0.00,WUHU21623XXSP,2012-10-31 19:15:00,
2012-10-31 12:20:00,55.8,55.5,29.61,NNE,22,0.0,0.0,99,0.00,,,0.00,WUHU21623XXSP,2012-10-31 19:20:00,
2012-10-31 12:25:00,55.8,55.5,29.60,NNE,22,0.0,0.0,99,0.00,,,0.00,WUHU21623XXSP,2012-10-31 19:25:00,
2012-10-31 12:30:00,55.8,55.5,29.59,NNE,22,0.0,0.0,99,0.00,,,0.00,WUHU21623XXSP,2012-10-31 19:30:00,
2012-10-31 12:35:00,55.9,55.7,29.59,NNE,22,0.0,0.0,99,0.00,,,0.00,WUHU21623XXSP,2012-10-31 19:35:00,
2012-10-31 12:40:00,56.1,55.8,29.59,NNE,22,0.0,0.0,99,0.00,,,0.00,WUHU21623XXSP,2012-10-31 19:40:00,
2012-10-31 12:45:00,56.1,55.8,29.58,NNE,22,0.0,0.0,99,0.00,,,0.00,WUHU21623XXSP,2012-10-31 19:45:00,
2012-10-31 12:50:00,56.3,56.0,29.58,East,90,0.0,0.0,99,0.00,,,0.00,WUHU21623XXSP,2012-10-31 19:50:00,
2012-10-31 12:55:00,56.5,56.2,29.58,ESE,112,0.0,0.0,99,0.00,,,0.00,WUHU21623XXSP,2012-10-31 19:55:00,
2012-10-31 13:00:00,56.7,56.2,29.58,ESE,112,0.0,0.0,99,0.00,,,0.00,WUHU21623XXSP,2012-10-31 20:00:00,
2012-10-31 13:05:00,56.8,56.4,29.58,SE,135,0.0,0.0,99,0.00,,,0.00,WUHU21623XXSP,2012-10-31 20:05:00,
2012-10-31 13:10:00,56.8,56.6,29.58,NE,45,0.0,0.0,99,0.00,,,0.00,WUHU21623XXSP,2012-10-31 20:10:00,
2012-10-31 13:15:00,56.8,56.6,29.58,ESE,112,0.0,0.0,99,0.00,,,0.00,WUHU21623XXSP,2012-10-31 20:15:00,
2012-10-31 13:20:00,56.8,56.6,29.58,NNE,22,0.0,0.0,99,0.00,,,0.00,WUHU21623XXSP,2012-10-31 20:20:00,
2012-10-31 13:25:00,56.8,56.6,29.58,SW,225,0.0,0.0,99,0.00,,,0.00,WUHU21623XXSP,2012-10-31 20:25:00,
2012-10-31 13:30:00,56.8,56.6,29.59,SW,225,0.0,0.0,99,0.00,,,0.00,WUHU21623XXSP,2012-10-31 20:30:00,
2012-10-31 13:35:00,57.0,56.7,29.59,SW,225,0.0,0.0,99,0.00,,,0.00,WUHU21623XXSP,2012-10-31 20:35:00,
2012-10-31 13:40:00,57.0,56.7,29.59,SW,225,0.0,0.0,99,0.00,,,0.00,WUHU21623XXSP,2012-10-31 20:40:00,
2012-10-31 13:45:00,57.0,56.7,29.59,SW,225,0.0,0.0,99,0.00,,,0.00,WUHU21623XXSP,2012-10-31 20:45:00,
2012-10-31 13:50:00,57.0,56.7,29.59,North,0,0.0,0.0,99,0.00,,,0.00,WUHU21623XXSP,2012-10-31 20:50:00,
2012-10-31 13:55:00,57.0,56.7,29.59,North,0,0.0,0.0,99,0.00,,,0.00,WUHU21623XXSP,2012-10-31 20:55:00,
2012-10-31 14:00:00,57.0,56.7,29.59,North,0,0.0,0.0,99,0.00,,,0.00,WUHU21623XXSP,2012-10-31 21:00:00,
2012-10-31 14:05:00,57.0,56.7,29.59,North,0,0.0,0.0,99,0.00,,,0.00,WUHU21623XXSP,2012-10-31 21:05:00,
2012-10-31 14:10:00,57.0,56.7,29.59,North,0,0.0,0.0,99,0.00,,,0.00,WUHU21623XXSP,2012-10-31 21:10:00,
2012-10-31 14:15:00,57.0,56.7,29.60,North,0,0.0,0.0,99,0.00,,,0.00,WUHU21623XXSP,2012-10-31 21:15:00,
2012-10-31 14:20:00,57.0,56.7,29.60,North,0,0.0,0.0,99,0.00,,,0.00,WUHU21623XXSP,2012-10-31 21:20:00,
2012-10-31 14:25:00,57.0,56.7,29.60,North,0,0.0,0.0,99,0.00,,,0.00,WUHU21623XXSP,2012-10-31 21:25:00,
2012-10-31 14:30:00,57.0,56.7,29.60,North,0,0.0,0.0,99,0.00,,,0.00,WUHU21623XXSP,2012-10-31 21:30:00,
2012-10-31 14:35:00,57.0,56.7,29.60,NNE,22,0.0,0.0,99,0.00,,,0.00,WUHU21623XXSP,2012-10-31 21:35:00,
2012-10-31 14:40:00,57.0,56.7,29.60,ESE,112,0.0,0.0,99,0.00,,,0.00,WUHU21623XXSP,2012-10-31 21:40:00,
2012-10-31 14:45:00,57.0,56.7,29.60,ESE,112,0.0,0.0,99,0.00,,,0.00,WUHU21623XXSP,2012-10-31 21:45:00,
2012-10-31 14:50:00,57.0,56.7,29.60,SE,135,0.0,0.0,99,0.00,,,0.00,WUHU21623XXSP,2012-10-31 21:50:00,
2012-10-31 14:55:00,57.0,56.7,29.60,ESE,112,0.0,0.0,99,0.00,,,0.00,WUHU21623XXSP,2012-10-31 21:55:00,
2012-10-31 15:00:00,56.8,56.6,29.61,ESE,112,0.0,0.0,99,0.00,,,0.00,WUHU21623XXSP,2012-10-31 22:00:00,
2012-10-31 15:05:00,56.8,56.6,29.61,ESE,112,0.0,0.0,99,0.00,,,0.00,WUHU21623XXSP,2012-10-31 22:05:00,
2012-10-31 15:10:00,56.8,56.6,29.61,ESE,112,0.0,0.0,99,0.00,,,0.00,WUHU21623XXSP,2012-10-31 22:10:00,
2012-10-31 15:15:00,56.8,56.6,29.61,ESE,112,0.0,0.0,99,0.00,,,0.00,WUHU21623XXSP,2012-10-31 22:15:00,
2012-10-31 15:20:00,56.8,56.6,29.61,ESE,112,0.0,0.0,99,0.00,,,0.00,WUHU21623XXSP,2012-10-31 22:20:00,
2012-10-31 15:25:00,57.0,56.7,29.61,ESE,112,0.0,0.0,99,0.00,,,0.00,WUHU21623XXSP,2012-10-31 22:25:00,
2012-10-31 15:30:00,57.0,56.7,29.61,ESE,112,0.0,0.0,99,0.00,,,0.00,WUHU21623XXSP,2012-10-31 22:30:00,
2012-10-31 15:35:00,57.0,56.7,29.61,ESE,112,0.0,0.0,99,0.00,,,0.00,WUHU21623XXSP,2012-10-31 22:35:00,
2012-10-31 15:40:00,57.0,56.7,29.61,ESE,112,0.0,0.0,99,0.00,,,0.00,WUHU21623XXSP,2012-10-31 22:40:00,
2012-10-31 15:45:00,57.0,56.7,29.63,SE,135,0.0,0.0,99,0.00,,,0.00,WUHU21623XXSP,2012-10-31 22:45:00,
2012-10-31 15:50:00,56.8,56.6,29.63,SE,135,0.0,0.0,99,0.00,,,0.00,WUHU21623XXSP,2012-10-31 22:50:00,
2012-10-31 15:55:00,56.8,56.6,29.63,SE,135,0.0,0.0,99,0.00,,,0.00,WUHU21623XXSP,2012-10-31 22:55:00,
2012-10-31 16:00:00,56.8,56.6,29.63,SSE,157,0.0,0.0,99,0.00,,,0.00,WUHU21623XXSP,2012-10-31 23:00:00,
2012-10-31 16:05:00,56.5,55.9,29.63,ESE,112,0.0,0.0,98,0.00,,,0.00,WUHU21623XXSP,2012-10-31 23:05:00,
2012-10-31 16:10:00,56.5,55.9,29.63,ENE,67,0.0,0.0,98,0.00,,,0.00,WUHU21623XXSP,2012-10-31 23:10:00,
2012-10-31 16:15:00,56.5,55.9,29.63,SE,135,0.0,0.0,98,0.00,,,0.00,WUHU21623XXSP,2012-10-31 23:15:00,
2012-10-31 16:20:00,56.5,55.9,29.63,SE,135,0.0,0.0,98,0.00,,,0.00,WUHU21623XXSP,2012-10-31 23:20:00,
2012-10-31 16:25:00,56.3,55.7,29.63,SE,135,0.0,0.0,98,0.00,,,0.00,WUHU21623XXSP,2012-10-31 23:25:00,
2012-10-31 16:30:00,56.3,55.7,29.64,SE,135,0.0,0.0,98,0.00,,,0.00,WUHU21623XXSP,2012-10-31 23:30:00,
2012-10-31 16:35:00,56.1,55.5,29.64,SE,135,0.0,0.0,98,0.00,,,0.00,WUHU21623XXSP,2012-10-31 23:35:00,
2012-10-31 16:40:00,56.1,55.5,29.64,SE,135,0.0,0.0,98,0.00,,,0.00,WUHU21623XXSP,2012-10-31 23:40:00,
2012-10-31 16:45:00,55.9,55.4,29.64,SE,135,0.0,0.0,98,0.00,,,0.00,WUHU21623XXSP,2012-10-31 23:45:00,
2012-10-31 16:50:00,55.9,55.4,29.65,SE,135,0.0,0.0,98,0.00,,,0.00,WUHU21623XXSP,2012-10-31 23:50:00,
2012-10-31 16:55:00,55.9,55.4,29.65,SE,135,0.0,0.0,98,0.00,,,0.00,WUHU21623XXSP,2012-10-31 23:55:00,
2012-10-31 17:00:00,55.9,55.4,29.65,SE,135,0.0,0.0,98,0.00,,,0.00,WUHU21623XXSP,2012-11-01 00:00:00,
2012-10-31 17:05:00,55.9,55.4,29.65,SE,135,0.0,0.0,98,0.00,,,0.00,WUHU21623XXSP,2012-11-01 00:05:00,
2012-10-31 17:10:00,55.9,55.4,29.65,SE,135,0.0,0.0,98,0.00,,,0.00,WUHU21623XXSP,2012-11-01 00:10:00,
2012-10-31 17:15:00,55.6,55.0,29.66,ESE,112,0.0,0.0,98,0.00,,,0.00,WUHU21623XXSP,2012-11-01 00:15:00,
2012-10-31 17:20:00,55.6,55.0,29.66,ESE,112,0.0,0.0,98,0.00,,,0.00,WUHU21623XXSP,2012-11-01 00:20:00,
2012-10-31 17:25:00,55.6,55.0,29.66,ESE,112,0.0,0.0,98,0.00,,,0.00,WUHU21623XXSP,2012-11-01 00:25:00,
2012-10-31 17:30:00,55.4,54.8,29.66,ESE,112,0.0,0.0,98,0.00,,,0.00,WUHU21623XXSP,2012-11-01 00:30:00,
2012-10-31 17:35:00,55.2,54.6,29.65,East,90,0.0,0.0,98,0.00,,,0.00,WUHU21623XXSP,2012-11-01 00:35:00,
2012-10-31 17:40:00,55.2,54.9,29.66,ESE,112,0.0,0.0,99,0.00,,,0.00,WUHU21623XXSP,2012-11-01 00:40:00,
2012-10-31 17:45:00,55.2,54.9,29.66,ENE,67,0.0,0.0,99,0.00,,,0.00,WUHU21623XXSP,2012-11-01 00:45:00,
2012-10-31 17:50:00,55.2,54.9,29.66,East,90,0.0,0.0,99,0.00,,,0.00,WUHU21623XXSP,2012-11-01 00:50:00,
2012-10-31 17:55:00,55.0,54.8,29.66,ESE,112,0.0,0.0,99,0.00,,,0.00,WUHU21623XXSP,2012-11-01 00:55:00,
2012-10-31 18:00:00,55.0,54.5,29.66,ESE,112,0.0,0.0,98,0.00,,,0.00,WUHU21623XXSP,2012-11-01 01:00:00,
2012-10-31 18:05:00,54.7,54.3,29.66,ESE,112,0.0,0.0,98,0.00,,,0.00,WUHU21623XXSP,2012-11-01 01:05:00,
2012-10-31 18:10:00,54.7,54.4,29.66,ESE,112,0.0,0.0,98,0.00,,,0.00,WUHU21623XXSP,2012-11-01 01:10:00,
2012-10-31 18:15:00,54.5,53.9,29.66,ESE,112,0.0,0.0,98,0.00,,,0.00,WUHU21623XXSP,2012-11-01 01:15:00,
2012-10-31 18:20:00,54.3,53.7,29.66,SE,135,0.0,0.0,98,0.00,,,0.00,WUHU21623XXSP,2012-11-01 01:20:00,
2012-10-31 18:25:00,54.3,53.7,29.66,SE,135,0.0,0.0,98,0.00,,,0.00,WUHU21623XXSP,2012-11-01 01:25:00,
2012-10-31 18:30:00,54.1,53.7,29.66,ESE,112,0.0,0.0,98,0.00,,,0.00,WUHU21623XXSP,2012-11-01 01:30:00,
2012-10-31 18:35:00,54.1,53.6,29.66,ESE,112,0.0,0.0,98,0.00,,,0.00,WUHU21623XXSP,2012-11-01 01:35:00,
2012-10-31 18:40:00,54.1,53.6,29.67,ESE,112,0.0,0.0,98,0.00,,,0.00,WUHU21623XXSP,2012-11-01 01:40:00,
2012-10-31 18:45:00,54.0,53.4,29.67,SE,135,0.0,0.0,98,0.00,,,0.00,WUHU21623XXSP,2012-11-01 01:45:00,
2012-10-31 18:50:00,54.0,53.4,29.67,NE,45,0.0,0.0,98,0.00,,,0.00,WUHU21623XXSP,2012-11-01 01:50:00,
2012-10-31 18:55:00,53.8,53.2,29.67,SE,135,0.0,0.0,98,0.00,,,0.00,WUHU21623XXSP,2012-11-01 01:55:00,
2012-10-31 19:00:00,53.8,53.2,29.67,SE,135,0.0,0.0,98,0.00,,,0.00,WUHU21623XXSP,2012-11-01 02:00:00,
2012-10-31 19:05:00,53.8,53.2,29.67,SE,135,0.0,0.0,98,0.00,,,0.00,WUHU21623XXSP,2012-11-01 02:05:00,
2012-10-31 19:10:00,53.6,53.0,29.67,SE,135,0.0,0.0,98,0.00,,,0.00,WUHU21623XXSP,2012-11-01 02:10:00,
2012-10-31 19:15:00,53.4,52.8,29.67,SE,135,0.0,0.0,98,0.00,,,0.00,WUHU21623XXSP,2012-11-01 02:15:00,
2012-10-31 19:20:00,53.4,52.8,29.67,ESE,112,0.0,0.0,98,0.00,,,0.00,WUHU21623XXSP,2012-11-01 02:20:00,
2012-10-31 19:25:00,53.4,52.8,29.67,ESE,112,0.0,0.0,98,0.00,,,0.00,WUHU21623XXSP,2012-11-01 02:25:00,
2012-10-31 19:30:00,53.2,52.7,29.67,NE,45,0.0,0.0,98,0.00,,,0.00,WUHU21623XXSP,2012-11-01 02:30:00,
2012-10-31 19:35:00,53.2,52.7,29.67,East,90,0.0,0.0,98,0.00,,,0.00,WUHU21623XXSP,2012-11-01 02:35:00,
2012-10-31 19:40:00,53.2,52.7,29.67,ENE,67,0.0,0.0,98,0.00,,,0.00,WUHU21623XXSP,2012-11-01 02:40:00,
2012-10-31 19:46:00,52.9,52.3,29.67,ENE,67,0.0,0.0,98,0.00,,,0.00,WUHU21623XXSP,2012-11-01 02:46:00,
2012-10-31 19:51:00,52.9,52.3,29.67,NE,45,0.0,0.0,98,0.00,,,0.00,WUHU21623XXSP,2012-11-01 02:51:00,
2012-10-31 19:56:00,52.9,52.3,29.67,NE,45,0.0,0.0,98,0.00,,,0.00,WUHU21623XXSP,2012-11-01 02:56:00,
2012-10-31 20:01:00,52.9,52.3,29.67,NE,45,0.0,0.0,98,0.00,,,0.00,WUHU21623XXSP,2012-11-01 03:01:00,
2012-10-31 20:06:00,52.9,52.3,29.67,NE,45,0.0,0.0,98,0.00,,,0.00,WUHU21623XXSP,2012-11-01 03:06:00,
2012-10-31 20:11:00,52.7,52.1,29.67,NE,45,0.0,0.0,98,0.00,,,0.00,WUHU21623XXSP,2012-11-01 03:11:00,
2012-10-31 20:16:00,52.7,52.1,29.67,NE,45,0.0,0.0,98,0.00,,,0.00,WUHU21623XXSP,2012-11-01 03:16:00,
2012-10-31 20:21:00,52.7,52.1,29.68,NE,45,0.0,0.0,98,0.00,,,0.00,WUHU21623XXSP,2012-11-01 03:21:00,
2012-10-31 20:26:00,52.7,52.1,29.68,NE,45,0.0,0.0,98,0.00,,,0.00,WUHU21623XXSP,2012-11-01 03:26:00,
2012-10-31 20:31:00,52.7,52.1,29.68,NE,45,0.0,0.0,98,0.00,,,0.00,WUHU21623XXSP,2012-11-01 03:31:00,
2012-10-31 20:36:00,52.7,52.1,29.67,NE,45,0.0,0.0,98,0.00,,,0.00,WUHU21623XXSP,2012-11-01 03:36:00,
2012-10-31 20:41:00,52.5,51.9,29.67,NE,45,0.0,0.0,98,0.00,,,0.00,WUHU21623XXSP,2012-11-01 03:41:00,
2012-10-31 20:46:00,52.5,51.9,29.68,NE,45,0.0,0.0,98,0.00,,,0.00,WUHU21623XXSP,2012-11-01 03:46:00,
2012-10-31 20:51:00,52.5,51.9,29.67,NE,45,0.0,0.0,98,0.00,,,0.00,WUHU21623XXSP,2012-11-01 03:51:00,
2012-10-31 20:56:00,52.5,51.9,29.67,NE,45,0.0,0.0,98,0.00,,,0.00,WUHU21623XXSP,2012-11-01 03:56:00,
2012-10-31 21:00:00,52.5,51.9,29.67,NE,45,0.0,0.0,98,0.00,,,0.00,WUHU21623XXSP,2012-11-01 04:00:00,
2012-10-31 21:01:00,52.5,51.9,29.67,NE,45,0.0,0.0,98,0.00,,,0.00,WUHU21623XXSP,2012-11-01 04:01:00,
2012-10-31 21:06:00,52.5,51.9,29.67,NE,45,0.0,0.0,98,0.00,,,0.00,WUHU21623XXSP,2012-11-01 04:06:00,
2012-10-31 21:11:00,52.5,51.9,29.68,NE,45,0.0,0.0,98,0.00,,,0.00,WUHU21623XXSP,2012-11-01 04:11:00,
2012-10-31 21:16:00,52.5,51.9,29.67,NE,45,0.0,0.0,98,0.00,,,0.00,WUHU21623XXSP,2012-11-01 04:16:00,
2012-10-31 21:21:00,52.5,51.9,29.68,NE,45,0.0,0.0,98,0.00,,,0.00,WUHU21623XXSP,2012-11-01 04:21:00,
2012-10-31 21:26:00,52.5,51.9,29.68,NE,45,0.0,0.0,98,0.00,,,0.00,WUHU21623XXSP,2012-11-01 04:26:00,
2012-10-31 21:31:00,52.3,51.8,29.68,NE,45,0.0,0.0,98,0.00,,,0.00,WUHU21623XXSP,2012-11-01 04:31:00,
2012-10-31 21:36:00,52.3,51.8,29.68,NE,45,0.0,0.0,98,0.00,,,0.00,WUHU21623XXSP,2012-11-01 04:36:00,
2012-10-31 21:41:00,52.3,51.8,29.68,NE,45,0.0,0.0,98,0.00,,,0.00,WUHU21623XXSP,2012-11-01 04:41:00,
2012-10-31 21:46:00,52.3,51.8,29.68,NE,45,0.0,0.0,98,0.00,,,0.00,WUHU21623XXSP,2012-11-01 04:46:00,
2012-10-31 21:51:00,52.3,51.8,29.68,NE,45,0.0,0.0,98,0.00,,,0.00,WUHU21623XXSP,2012-11-01 04:51:00,
2012-10-31 21:56:00,52.3,51.8,29.68,NE,45,0.0,0.0,98,0.00,,,0.00,WUHU21623XXSP,2012-11-01 04:56:00,
2012-10-31 22:01:00,52.3,51.8,29.68,NNE,22,0.0,0.0,98,0.00,,,0.00,WUHU21623XXSP,2012-11-01 05:01:00,
2012-10-31 22:06:00,52.3,51.8,29.68,NNE,22,0.0,0.0,98,0.00,,,0.00,WUHU21623XXSP,2012-11-01 05:06:00,
2012-10-31 22:11:00,52.3,51.8,29.69,NNE,22,0.0,0.0,98,0.00,,,0.00,WUHU21623XXSP,2012-11-01 05:11:00,
2012-10-31 22:16:00,52.3,51.8,29.69,NNE,22,0.0,0.0,98,0.00,,,0.00,WUHU21623XXSP,2012-11-01 05:16:00,
2012-10-31 22:21:00,52.3,51.8,29.68,NNE,22,0.0,0.0,98,0.00,,,0.00,WUHU21623XXSP,2012-11-01 05:21:00,
2012-10-31 22:26:00,52.3,51.8,29.68,NNE,22,0.0,0.0,98,0.00,,,0.00,WUHU21623XXSP,2012-11-01 05:26:00,
2012-10-31 22:31:00,52.3,51.8,29.69,NNE,22,0.0,0.0,98,0.00,,,0.00,WUHU21623XXSP,2012-11-01 05:31:00,
2012-10-31 22:36:00,52.3,51.8,29.68,East,90,0.0,0.0,98,0.00,,,0.00,WUHU21623XXSP,2012-11-01 05:36:00,
2012-10-31 22:41:00,52.3,51.8,29.68,East,90,0.0,0.0,98,0.00,,,0.00,WUHU21623XXSP,2012-11-01 05:41:00,
2012-10-31 22:46:00,52.2,51.6,29.69,East,90,0.0,0.0,98,0.00,,,0.00,WUHU21623XXSP,2012-11-01 05:46:00,
2012-10-31 22:51:00,52.2,51.6,29.69,ENE,67,0.0,0.0,98,0.00,,,0.00,WUHU21623XXSP,2012-11-01 05:51:00,
2012-10-31 22:56:00,52.2,51.6,29.69,ENE,67,0.0,0.0,98,0.00,,,0.00,WUHU21623XXSP,2012-11-01 05:56:00,
2012-10-31 23:01:00,52.2,51.9,29.68,ENE,67,0.0,0.0,99,0.00,,,0.00,WUHU21623XXSP,2012-11-01 06:01:00,
2012-10-31 23:06:00,52.0,51.6,29.69,ENE,67,0.0,0.0,98,0.00,,,0.00,WUHU21623XXSP,2012-11-01 06:06:00,
2012-10-31 23:11:00,52.0,51.7,29.69,NE,45,0.0,0.0,99,0.00,,,0.00,WUHU21623XXSP,2012-11-01 06:11:00,
2012-10-31 23:16:00,52.0,51.7,29.69,NE,45,0.0,0.0,99,0.00,,,0.00,WUHU21623XXSP,2012-11-01 06:16:00,
2012-10-31 23:21:00,52.0,51.7,29.69,NE,45,0.0,0.0,99,0.00,,,0.00,WUHU21623XXSP,2012-11-01 06:21:00,
2012-10-31 23:26:00,52.0,51.7,29.69,NE,45,0.0,0.0,99,0.00,,,0.00,WUHU21623XXSP,2012-11-01 06:26:00,
2012-10-31 23:31:00,52.0,51.7,29.68,NE,45,0.0,0.0,99,0.00,,,0.00,WUHU21623XXSP,2012-11-01 06:31:00,
2012-10-31 23:36:00,52.0,51.7,29.68,NE,45,0.0,0.0,99,0.00,,,0.00,WUHU21623XXSP,2012-11-01 06:36:00,
2012-10-31 23:41:00,52.0,51.7,29.69,NE,45,0.0,0.0,99,0.00,,,0.00,WUHU21623XXSP,2012-11-01 06:41:00,
2012-10-31 23:46:00,52.0,51.7,29.69,NE,45,0.0,0.0,99,0.00,,,0.00,WUHU21623XXSP,2012-11-01 06:46:00,
2012-10-31 23:51:00,52.0,51.7,29.69,West,270,0.0,0.0,99,0.00,,,0.00,WUHU21623XXSP,2012-11-01 06:51:00,
2012-10-31 23:56:00,52.0,51.7,29.69,West,270,0.0,0.0,99,0.00,,,0.00,WUHU21623XXSP,2012-11-01 06:56:00,